Weather History for Hollywood, FL

Change the Weather History Date:

Monday, June 16, 2014

  Actual Average (KFLL) Record (KFLL)
Temperature  
Mean Temperature 82 °F 83 °F  
Max Temperature 88 °F 89 °F 97 °F (1977)
Min Temperature 77 °F 78 °F 64 °F (1915)
Degree Days  
Heating Degree Days 0 0  
Month to date heating degree days 0  
Since 1 June heating degree days 0  
Since 1 July heating degree days 112  
Cooling Degree Days 17 18  
Month to date cooling degree days 285  
Year to date cooling degree days 1703  
Since 1 June cooling degree days 285  
Growing Degree Days 32 (Base 50)    
Moisture  
Dew Point 72 °F    
Average Humidity 75    
Maximum Humidity 90    
Minimum Humidity 57    
Precipitation  
Precipitation 0.00 in 0.33 in 2.73 in (1984)
Month to date precipitation 5.24  
Year to date precipitation 22.73  
Snow  
Snow 0.00 in - - ()
Month to date snowfall  
Since 1 June snowfall  
Since 1 July snowfall  
Snow Depth -    
Sea Level Pressure  
Sea Level Pressure 30.13 in    
Wind  
Wind Speed 8 mph (ENE)    
Max Wind Speed 16 mph    
Max Gust Speed 21 mph    
Visibility 10 miles    
Events Thunderstorm    
T = Trace of Precipitation, MM = Missing Value Source: NWS Daily Summary

Daily Weather History Graph

Daily Weather History Graph

Search for Another Location

Airport:

Trip Planner

Search our weather history database for the weather conditions in past years. The results will help you decide how hot, cold, wet, or windy it might be!

Date:

Astronomy

Jun. 16, 2014 Rise Set
Actual Time 6:28 AM EDT 8:14 PM EDT
Civil Twilight 6:02 AM EDT 8:40 PM EDT
Nautical Twilight 5:31 AM EDT 9:12 PM EDT
Astronomical Twilight 4:58 AM EDT 9:45 PM EDT
Moon 11:27 PM EDT (6/16) 10:12 AM EDT (6/16)
Length of Visible Light 14h 37m
Length of Day
13h 45m
Waning Gibbous, 83% of the Moon is Illuminated
Jun 16
Waning Gibbous
Jun 19
Last Quarter
Jun 27
New
Jul 5
First Quarter
Jul 12
Full

Hourly Weather History & Observations

Time (EDT) Temp. Heat Index Dew Point Humidity Pressure Visibility Wind Dir Wind Speed Gust Speed Precip Events Conditions
12:53 AM 81.0 °F 86.2 °F 73.9 °F 79% 30.12 in 10.0 mi East 6.9 mph - N/A   Partly Cloudy
1:53 AM 79.0 °F - 73.9 °F 84% 30.11 in 10.0 mi East 4.6 mph - N/A   Partly Cloudy
2:53 AM 80.1 °F 84.5 °F 73.9 °F 81% 30.10 in 10.0 mi East 3.5 mph - N/A   Clear
3:53 AM 79.0 °F - 73.9 °F 84% 30.09 in 10.0 mi Calm Calm - N/A   Clear
4:53 AM 78.1 °F - 73.9 °F 87% 30.08 in 10.0 mi Calm Calm - N/A   Clear
5:53 AM 77.0 °F - 73.9 °F 90% 30.09 in 10.0 mi North 4.6 mph - N/A   Partly Cloudy
6:53 AM 78.1 °F - 75.0 °F 90% 30.11 in 10.0 mi North 6.9 mph - N/A Thunderstorm Partly Cloudy
7:22 AM 78.1 °F - 75.0 °F 90% 30.12 in 10.0 mi North 5.8 mph - N/A   Mostly Cloudy
7:31 AM 78.1 °F - 75.0 °F 90% 30.12 in 10.0 mi North 5.8 mph - N/A Thunderstorm Mostly Cloudy
7:38 AM 78.1 °F - 75.0 °F 90% 30.12 in 10.0 mi North 5.8 mph - N/A Thunderstorm Mostly Cloudy
7:46 AM 78.1 °F - 75.0 °F 90% 30.13 in 10.0 mi North 4.6 mph - N/A   Mostly Cloudy
7:53 AM 78.1 °F - 75.0 °F 90% 30.14 in 10.0 mi North 6.9 mph - N/A Thunderstorm Mostly Cloudy
8:10 AM 78.1 °F - 73.0 °F 84% 30.14 in 10.0 mi East 6.9 mph 18.4 mph N/A   Mostly Cloudy
8:21 AM 79.0 °F - 71.1 °F 77% 30.15 in 10.0 mi East 9.2 mph - N/A   Overcast
8:53 AM 79.0 °F - 70.0 °F 74% 30.16 in 10.0 mi East 11.5 mph - N/A   Clear
9:53 AM 84.0 °F 91.2 °F 73.9 °F 72% 30.16 in 10.0 mi NE 11.5 mph - N/A   Clear
10:53 AM 84.9 °F 90.7 °F 72.0 °F 65% 30.17 in 10.0 mi ENE 13.8 mph - N/A   Partly Cloudy
11:53 AM 84.9 °F 91.4 °F 73.0 °F 67% 30.17 in 10.0 mi ENE 13.8 mph - N/A   Mostly Cloudy
12:53 PM 86.0 °F 92.2 °F 72.0 °F 63% 30.17 in 10.0 mi ENE 15.0 mph - N/A   Scattered Clouds
1:32 PM 87.1 °F 93.6 °F 72.0 °F 61% 30.16 in 10.0 mi East 9.2 mph - N/A   Mostly Cloudy
1:39 PM 87.1 °F 93.6 °F 72.0 °F 61% 30.15 in 10.0 mi ENE 15.0 mph - N/A   Scattered Clouds
1:53 PM 87.1 °F 93.6 °F 72.0 °F 61% 30.15 in 10.0 mi East 12.7 mph 20.7 mph N/A   Partly Cloudy
2:53 PM 87.1 °F 92.0 °F 70.0 °F 57% 30.14 in 10.0 mi East 15.0 mph - N/A   Partly Cloudy
3:53 PM 86.0 °F 90.7 °F 70.0 °F 59% 30.13 in 10.0 mi East 16.1 mph - N/A   Clear
4:53 PM 84.9 °F 89.4 °F 70.0 °F 61% 30.12 in 10.0 mi East 15.0 mph - N/A   Clear
5:53 PM 84.9 °F 90.7 °F 72.0 °F 65% 30.10 in 10.0 mi East 13.8 mph - N/A   Partly Cloudy
6:53 PM 82.9 °F 86.5 °F 69.1 °F 63% 30.10 in 10.0 mi East 13.8 mph - N/A   Clear
7:53 PM 81.0 °F 84.1 °F 69.1 °F 67% 30.11 in 10.0 mi East 8.1 mph - N/A   Clear
8:53 PM 80.1 °F 83.2 °F 70.0 °F 71% 30.12 in 10.0 mi East 9.2 mph - N/A   Clear
9:53 PM 80.1 °F 83.6 °F 71.1 °F 74% 30.13 in 10.0 mi East 9.2 mph - N/A   Clear
10:53 PM 80.1 °F 83.8 °F 72.0 °F 76% 30.13 in 10.0 mi East 8.1 mph - N/A   Clear
11:53 PM 79.0 °F - 72.0 °F 79% 30.13 in 10.0 mi East 8.1 mph - N/A   Clear